Regional Weather Roundup
Issued by NWS Jackson, KY

Home | Current Version | Previous Version | Text Only | Print | Product List | Glossary Off
Versions: 1 2 3 4 5 6 7 8 9 10 11 12 13 14 15 16 17 18 19 20 21 22 23 24 25 26 27 28 29 30 31 32 33 34 35 36 37 38 39 40 41 42 43 44 45 46 47 48 49 50

000
ASUS43 KJKL 292105
RWRJKL

EAST KENTUCKY HOURLY WEATHER ROUNDUP
NATIONAL WEATHER SERVICE JACKSON KY
500 PM EDT TUE JUL 29 2014

NOTE: "FAIR" INDICATES FEW OR NO CLOUDS BELOW 12,000 FEET WITH
NO SIGNIFICANT WEATHER AND/OR OBSTRUCTIONS TO VISIBILITY.

* THESE REPORTS ARE NOT UNDER NWS QUALITY CONTROL AND MAY NOT
  REPORT WEATHER SUCH AS PRECIPITATION AND FOG.

KYZ079-080-083-085-087-088-110-112-115-119-120-292200
...EASTERN KENTUCKY...

CITY           SKY/WX    TMP DP  RH WIND       PRES   REMARKS
JACKSON        CLOUDY    68  54  60 VRB5      30.07S
LONDON         PTSUNNY   72  51  47 NW9       30.08S
SOMERSET*      PTSUNNY   72  50  46 N8        30.09S
MONTICELLO*    MOSUNNY   74  55  51 N7        30.10S
WILLIAMSBURG*  PTSUNNY  N/A N/A N/A N7          N/A
MIDDLESBORO*   MOSUNNY   72  52  48 N5        30.07S
HARLAN APT*    CLEAR     70  48  46 MISG      30.07R
BLACK MTN*       N/A     57  50  77 N3          N/A
PIKEVILLE APT* MOSUNNY   70  52  52 NW8       30.06S
BIG SANDY*     MOCLDY    71  55  57 N7        30.05S
MOREHEAD APT*    N/A     70  54  56 W6        30.09S
$$

KYZ035-036-041-042-044-050-067-078-099-292200
...CENTRAL KENTUCKY...

CITY           SKY/WX    TMP DP  RH WIND       PRES   REMARKS
MT STERLING*   PTSUNNY   70  52  52 N5        30.08F
FLEMING/MASON* SUNNY     71  54  55 W10       30.07F
DANVILLE*      PTSUNNY   72  54  53 N7        30.10S
RICHMOND*      MOSUNNY   70  50  49 NW8       30.08S
LEXINGTON      MOSUNNY   73  52  47 NW7       30.08F
FRANKFORT      PTSUNNY   73  51  46 NW12      30.07F
$$

KYZ091>093-OHZ055-061-077-WVZ005-015-034-035-042-292200
...SOUTHERN OHIO/WEST VIRGINIA...

CITY           SKY/WX    TMP DP  RH WIND       PRES   REMARKS
COVINGTON      MOSUNNY   72  51  47 W12       30.07S
COLUMBUS       MOSUNNY   71  47  42 NW6       30.03S
DAYTON         PTSUNNY   72  53  51 W8        30.06S
WILMINGTON     PTSUNNY   70  50  49 NW8       30.06S
HUNTINGTON     MOSUNNY   70  57  63 NW6       30.04R
CHARLESTON     PTSUNNY   69  56  62 NW8       30.03R
PINEVILLE*     MOSUNNY   73  56  55 MISG      30.09R
BECKLEY        PTSUNNY   69  49  48 NW9       30.05R
BLUEFIELD      MOSUNNY   70  51  51 NW8       30.06R
$$

VAZ002-007-008-TNZ017-027-036-066-071-292200
...SOUTHWEST VIRGINIA/EAST TENNESSEE...

CITY           SKY/WX    TMP DP  RH WIND       PRES   REMARKS
WISE*          CLOUDY    64  48  55 NW10      30.09R
JONESVILLE*    CLEAR     73  54  49 NW3       30.07R
ABINGDON*      MOSUNNY   74  52  45 N9        30.03R
BRISTOL        PTSUNNY   75  53  46 W13       30.02R
KNOXVILLE      MOSUNNY   75  54  47 W10       30.02R
OAK RIDGE      SUNNY     78  49  35 MISG      30.05R
CROSSVILLE     SUNNY     71  51  49 N13G20    30.10F
NASHVILLE      PTSUNNY   81  52  36 N13       30.08F
$$

...KEY TO REMARKS...
VSB - VISIBILITY IN MILES
WCI - WIND CHILL INDEX
HX  - HEAT INDEX

$$



USA.gov is the U.S. government's official web portal to all federal, state and local government web resources and services.